| time (UTC) | temp C | wind direction | speed KPH | gust KPH | rain 1hr cm | rain 24hr cm | rain mn cm | humidity % | barometer mb |
| 20260504000409 | 15 | 360 | 9.7 | 22.5 | 0.00 | 0.00 | 0.00 | 46 | 1021.1 |
| 20260504000326 | 15 | 360 | 9.7 | 22.5 | 0.00 | 0.00 | 0.00 | 46 | 1021.1 |
| 20260504000042 | 15 | 215 | 9.7 | 29.0 | 0.00 | 0.00 | 0.00 | 46 | 1021.2 |
| 20260503233047 | 15 | 259 | 11.3 | 27.4 | 0.00 | 0.00 | 0.00 | 43 | 1021.2 |
| 20260503230343 | 15 | 248 | 14.5 | 20.9 | 0.00 | 0.00 | 0.00 | 43 | 1021.3 |
| 20260503230105 | 16 | 229 | 11.3 | 25.7 | 0.00 | 0.00 | 0.00 | 44 | 1021.3 |
| 20260503223021 | 16 | 203 | 12.9 | 29.0 | 0.00 | 0.00 | 0.00 | 42 | 1021.4 |
| 20260503220322 | 16 | 227 | 8.0 | 24.1 | 0.00 | 0.00 | 0.00 | 42 | 1021.5 |
| 20260503220014 | 16 | 244 | 6.4 | 27.4 | 0.00 | 0.00 | 0.00 | 42 | 1021.5 |
| 20260503213038 | 16 | 263 | 11.3 | 29.0 | 0.00 | 0.00 | 0.00 | 44 | 1021.5 |
| 20260503210311 | 16 | 289 | 16.1 | 29.0 | 0.00 | 0.00 | 0.00 | 42 | 1021.4 |
| 20260503210036 | 16 | 254 | 9.7 | 24.1 | 0.00 | 0.00 | 0.00 | 43 | 1021.3 |
| 20260503203033 | 16 | 272 | 11.3 | 35.4 | 0.00 | 0.00 | 0.00 | 44 | 1021.6 |
| 20260503200324 | 16 | 290 | 12.9 | 33.8 | 0.00 | 0.00 | 0.00 | 45 | 1022.0 |
| 20260503200047 | 16 | 273 | 9.7 | 33.8 | 0.00 | 0.00 | 0.00 | 45 | 1022.1 |
| 20260503193042 | 16 | 234 | 19.3 | 38.6 | 0.00 | 0.00 | 0.00 | 41 | 1022.5 |
| 20260503190316 | 16 | 333 | 17.7 | 32.2 | 0.00 | 0.00 | 0.00 | 41 | 1023.0 |
| 20260503190056 | 16 | 302 | 12.9 | 32.2 | 0.00 | 0.00 | 0.00 | 40 | 1023.0 |
| 20260503183031 | 16 | 239 | 17.7 | 37.0 | 0.00 | 0.00 | 0.00 | 42 | 1023.4 |
| 20260503180334 | 16 | 266 | 20.9 | 38.6 | 0.00 | 0.00 | 0.00 | 43 | 1023.6 |
| 20260503180024 | 16 | 320 | 12.9 | 27.4 | 0.00 | 0.00 | 0.00 | 43 | 1023.7 |
| 20260503170317 | 15 | 242 | 14.5 | 35.4 | 0.00 | 0.00 | 0.00 | 43 | 1024.1 |
| 20260503160109 | 13 | 284 | 11.3 | 35.4 | 0.00 | 0.00 | 0.00 | 45 | 1024.8 |
| 20260503150316 | 12 | 250 | 16.1 | 27.4 | 0.00 | 0.00 | 0.00 | 46 | 1025.2 |
| 20260503130312 | 8 | 257 | 8.0 | 17.7 | 0.00 | 0.00 | 0.00 | 55 | 1026.0 |
| 20260503120125 | 6 | 252 | 6.4 | 12.9 | 0.00 | 0.00 | 0.00 | 70 | 1026.0 |
| 20260503110355 | 3 | 247 | 4.8 | 12.9 | 0.00 | 0.00 | 0.00 | 81 | 1025.5 |
| 20260503100106 | 2 | 242 | 3.2 | 8.0 | 0.00 | 0.03 | 0.00 | 82 | 1025.3 |
| 20260503090311 | 2 | 228 | 3.2 | 11.3 | 0.00 | 0.03 | 0.00 | 83 | 1025.4 |
| 20260503080406 | 2 | 194 | 4.8 | 8.0 | 0.00 | 0.05 | 0.00 | 83 | 1025.5 |
| 20260503070318 | 2 | 192 | 4.8 | 8.0 | 0.00 | 0.08 | 0.00 | 83 | 1025.5 |
| 20260503060314 | 2 | 220 | 3.2 | 6.4 | 0.00 | 0.08 | 0.00 | 85 | 1025.9 |
| 20260503053058 | 2 | 217 | 3.2 | 9.7 | 0.00 | 0.08 | 0.00 | 87 | 1026.0 |
| 20260503050312 | 1 | 186 | 1.6 | 6.4 | 0.00 | 0.08 | 0.00 | 89 | 1026.2 |
| 20260503050027 | 1 | 186 | 1.6 | 6.4 | 0.00 | 0.08 | 0.00 | 90 | 1026.2 |
| 20260503043025 | 1 | 253 | 0.0 | 3.2 | 0.00 | 0.08 | 0.00 | 89 | 1026.2 |
| 20260503040424 | 2 | 254 | 1.6 | 3.2 | 0.00 | 0.08 | 0.00 | 87 | 1026.4 |
| 20260503040035 | 2 | 254 | 1.6 | 3.2 | 0.00 | 0.08 | 0.00 | 87 | 1026.4 |
| 20260503033014 | 3 | 254 | 1.6 | 3.2 | 0.00 | 0.08 | 0.08 | 84 | 1026.5 |
| 20260503030403 | 3 | 254 | 1.6 | 3.2 | 0.00 | 0.08 | 0.08 | 84 | 1026.6 |
| 20260503030014 | 4 | 254 | 1.6 | 3.2 | 0.00 | 0.08 | 0.08 | 84 | 1026.6 |
| 20260503023013 | 4 | 292 | 0.0 | 1.6 | 0.00 | 0.08 | 0.08 | 84 | 1027.0 |
| 20260503020323 | 4 | 294 | 1.6 | 3.2 | 0.00 | 0.08 | 0.08 | 83 | 1027.0 |
| 20260503020107 | 4 | 294 | 0.0 | 3.2 | 0.00 | 0.08 | 0.08 | 83 | 1027.0 |
| 20260503013027 | 4 | 294 | 0.0 | 1.6 | 0.00 | 0.08 | 0.08 | 82 | 1027.0 |
| 20260503010327 | 5 | 294 | 1.6 | 1.6 | 0.00 | 0.08 | 0.08 | 81 | 1026.9 |
| 20260503010023 | 5 | 294 | 1.6 | 3.2 | 0.00 | 0.08 | 0.08 | 81 | 1026.9 |
| 20260503003025 | 5 | 294 | 0.0 | 3.2 | 0.00 | 0.08 | 0.08 | 74 | 1026.9 |